Theta_e
300 300 300 300 300 300 300 300 301 302 302 302 302 302 303 304 304 304 305 313 313 313 312 311 309 310 313 314 318 323 322 323 328 328 327 328 326 328 327 327 326 327 336 338 340
300 300 300 300 300 300 300 300 301 301 302 302 302 302 303 304 306 306 314 314 313 310 306 307 312 313 313 315 315 318 322 323 324 327 328 328 328 328 327 327 326 328 338 338 339
300 300 300 300 300 300 300 301 301 301 302 302 302 303 304 306 318 317 315 313 308 305 306 310 311 311 313 314 315 318 321 323 324 327 328 329 328 329 328 326 326 325 336 337 339
300 300 300 300 300 300 300 301 301 301 302 302 302 303 305 308 317 317 308 309 312 312 313 313 311 311 312 312 315 314 316 321 322 323 324 325 327 327 328 328 329 327 326 334 337
301 301 301 300 300 300 301 301 301 302 302 302 303 304 305 318 319 310 311 312 312 313 313 313 313 312 309 313 313 313 315 317 319 322 323 323 324 325 327 328 329 328 327 327 335
299 300 301 301 301 301 301 301 301 302 302 302 303 304 308 318 311 311 311 312 312 312 312 312 313 313 313 311 310 313 314 316 317 318 321 322 323 325 326 327 328 329 328 327 329
302 299 300 301 302 301 301 302 302 302 303 303 304 305 308 308 311 310 311 310 310 311 312 312 312 312 312 311 313 313 312 314 315 317 317 319 321 325 326 325 326 327 329 328 328
308 308 300 301 302 302 302 303 303 306 307 304 305 306 311 313 310 311 309 309 311 311 311 311 312 312 312 312 312 311 311 310 315 316 317 317 317 319 321 324 325 326 327 328 328
308 308 305 300 302 303 303 304 305 310 309 305 308 315 318 315 311 310 309 310 311 310 311 311 312 312 312 310 309 310 310 310 311 313 315 316 317 318 319 321 322 323 324 328 328
308 308 307 301 304 303 305 310 313 312 310 316 311 314 315 314 310 310 310 310 310 311 312 313 312 310 309 310 309 310 310 311 311 311 312 312 315 317 318 319 320 322 323 328 328
307 308 308 302 305 304 311 314 311 315 312 317 318 316 313 311 310 310 311 310 310 311 311 312 309 311 311 313 313 312 313 313 313 313 312 312 313 314 315 318 319 320 322 324 327
306 307 308 304 305 305 311 313 310 310 311 311 312 312 312 311 310 310 311 310 310 309 310 309 309 311 313 313 313 313 313 313 313 313 313 312 312 313 314 315 316 319 321 322 325
301 307 308 304 312 312 312 313 311 311 311 312 313 311 312 310 310 310 311 310 310 309 310 309 310 311 311 311 312 311 312 312 313 314 313 312 312 312 313 314 317 317 320 320 323
309 303 308 304 313 311 312 311 311 311 310 315 312 311 310 310 311 311 311 310 309 309 309 309 309 310 310 310 311 311 312 312 312 312 311 312 311 311 312 314 316 317 319 320 321
310 305 307 305 313 313 311 311 312 312 321 313 311 311 310 310 311 312 311 310 309 309 309 308 309 309 311 314 314 315 315 314 314 312 310 311 310 311 311 313 313 315 319 321 320
310 308 306 309 313 314 311 310 312 316 321 312 311 311 310 311 312 312 311 310 311 310 310 309 311 311 313 314 314 314 314 313 313 311 312 310 310 311 311 313 313 314 316 318 321
310 308 306 308 312 312 310 312 315 320 316 313 312 312 311 311 313 313 311 310 310 310 309 309 309 311 313 313 313 312 312 313 311 311 312 310 310 310 311 313 314 313 314 316 319
311 307 311 305 312 312 310 313 318 318 315 313 311 311 312 313 313 313 312 310 312 309 307 308 309 310 312 311 311 311 313 315 318 312 311 312 312 311 312 312 314 315 315 315 316
309 310 314 311 312 310 311 315 317 315 312 311 311 312 312 313 312 312 311 311 312 312 311 311 312 311 311 311 312 313 313 313 315 315 314 313 312 312 312 314 315 314 313 315 316
310 314 315 315 313 310 312 315 315 311 310 310 311 312 312 311 311 312 312 312 311 312 311 311 313 312 311 311 311 311 312 312 314 314 314 313 313 312 317 315 314 314 313 315 316
312 314 315 314 310 310 314 315 314 312 310 311 311 313 311 312 311 311 311 311 312 312 311 311 313 312 310 311 310 310 313 313 313 314 313 313 313 317 314 314 314 313 313 315 318
312 313 314 309 309 314 314 314 312 312 311 311 312 312 312 311 311 310 310 312 311 311 312 312 312 312 311 310 311 311 313 312 315 314 313 313 313 313 313 312 313 312 313 315 317
309 313 312 310 314 312 312 311 311 313 312 311 312 311 310 310 311 312 312 312 312 311 312 311 311 313 312 310 312 312 311 314 313 314 315 317 315 313 313 313 312 313 314 316 316
310 312 312 311 311 310 310 311 311 312 312 312 311 311 311 311 311 313 311 311 311 311 312 312 313 312 313 312 311 312 312 312 312 314 314 314 315 314 314 313 314 314 314 315 314
311 311 307 310 309 309 310 310 311 312 312 310 311 310 311 311 310 311 311 312 312 313 313 312 315 312 312 313 313 313 313 312 311 313 313 313 313 313 314 313 313 313 313 313 313
306 305 304 304 307 310 312 310 309 310 309 309 310 310 309 309 310 310 311 311 311 313 313 312 312 314 316 313 313 314 312 312 311 311 312 312 312 312 313 311 313 312 313 313 313
304 304 305 304 307 309 310 309 309 309 309 309 309 308 309 309 310 311 311 310 311 313 310 309 312 314 314 313 313 314 313 312 313 313 311 312 313 311 313 313 313 312 313 313 316
Wind_Speed
15 14 13 12 12 11 10 10 10 10 11 12 12 13 17 19 18 14 13 11 10 14 16 16 11 12 9 13 16 17 8 11 16 16 18 28 14 32 29 22 17 17 2 13 25
15 14 14 13 13 12 12 12 11 11 12 13 14 16 18 21 19 6 6 7 11 14 13 10 8 8 13 8 10 8 7 18 15 16 19 25 21 25 21 26 17 8 18 16 14
18 16 15 14 14 13 13 12 12 12 12 14 15 16 17 18 8 1 2 7 12 9 8 3 6 12 13 16 22 10 20 14 20 27 33 28 27 26 20 15 23 14 11 11 23
19 18 17 16 16 15 15 15 14 13 13 15 16 15 15 11 5 2 8 6 9 6 9 4 7 13 4 7 15 17 24 25 27 34 33 25 30 27 28 25 34 32 18 10 21
20 19 18 17 16 17 17 17 15 14 14 16 17 14 11 6 7 6 10 10 10 8 10 14 15 14 8 7 21 21 18 26 32 31 36 39 30 25 32 35 34 35 28 22 21
21 20 20 19 18 17 16 16 15 14 14 15 14 12 7 5 1 6 8 9 12 10 7 10 10 17 14 12 10 17 21 22 28 28 30 29 30 28 35 35 33 35 30 26 17
23 23 22 20 19 17 16 15 14 13 14 13 9 9 9 15 1 5 6 8 10 9 9 8 13 11 17 9 15 19 12 14 18 19 17 20 19 27 34 36 35 34 30 29 21
24 25 23 22 20 17 15 14 11 12 12 8 8 6 8 4 4 1 8 9 7 9 10 12 12 8 12 15 17 8 9 6 2 13 24 14 23 20 26 29 29 32 34 37 28
24 25 24 21 19 16 14 12 13 12 10 6 4 5 10 6 6 3 9 7 10 12 10 10 7 8 11 7 6 5 9 11 15 8 8 11 25 23 30 27 29 34 36 39 42
25 26 25 21 16 13 10 12 10 8 3 6 5 7 9 6 5 10 9 5 12 13 12 14 10 5 4 4 5 7 9 10 14 6 12 16 19 23 32 31 30 33 35 33 39
26 27 26 19 13 9 8 11 9 3 5 12 10 13 22 10 6 7 7 9 13 14 5 11 5 6 12 13 16 15 15 13 13 9 12 13 15 19 15 26 27 34 27 32 37
28 26 26 18 8 3 8 8 10 11 11 18 21 21 16 11 9 10 7 6 11 7 9 6 6 8 13 12 12 12 16 15 11 11 13 15 16 20 15 16 23 30 35 36 37
30 27 25 13 2 4 6 5 12 12 5 15 11 9 9 2 8 11 3 6 6 8 8 7 12 15 17 16 15 12 14 10 13 10 12 9 16 20 20 19 27 29 33 39 39
30 27 21 10 6 10 9 9 11 13 3 5 6 4 4 6 8 11 8 6 3 7 8 7 11 15 13 14 14 16 14 18 17 12 11 4 15 15 21 17 13 22 27 31 23
30 27 16 6 8 5 13 11 14 1 2 6 10 9 5 8 10 16 11 9 8 12 6 10 11 14 10 11 17 13 23 13 18 17 10 8 9 13 10 19 17 16 25 32 33
30 22 15 6 6 10 15 12 10 1 3 5 7 6 8 12 12 9 13 16 18 11 9 10 13 1 3 10 10 14 13 15 15 8 11 10 7 18 12 17 17 16 25 32 40
30 16 10 10 2 12 15 10 2 3 4 5 6 13 12 14 16 7 2 4 4 5 6 6 5 2 3 5 7 10 7 4 4 7 13 10 13 19 11 16 14 15 28 31 31
23 7 7 4 3 9 9 2 2 8 7 12 12 12 14 12 11 12 12 6 7 6 4 5 8 1 3 5 4 6 3 3 4 5 7 14 10 13 11 20 25 26 30 35 36
18 1 5 4 2 7 8 2 1 10 12 12 13 11 11 17 9 11 8 5 6 9 6 6 7 11 7 13 10 5 6 15 10 8 2 7 16 14 17 10 20 30 40 32 35
12 6 8 4 3 6 1 4 3 8 11 9 6 6 12 13 10 11 8 7 14 13 14 7 14 6 11 14 11 7 6 5 3 3 4 5 11 8 13 15 19 21 28 39 44
6 3 3 3 5 4 1 4 13 15 3 3 10 11 8 7 11 12 9 14 10 11 9 7 4 10 10 5 13 13 4 4 2 2 4 4 4 2 6 8 15 19 36 38 38
7 1 2 6 2 3 3 7 18 15 12 5 1 5 6 8 9 10 11 7 11 7 5 2 4 10 19 18 18 12 4 5 4 5 4 4 8 4 6 9 13 21 38 42 35
11 4 3 5 0 4 9 13 16 14 9 5 5 5 6 7 4 7 13 14 7 5 4 3 4 6 9 5 3 3 4 4 0 5 6 6 5 6 10 12 15 18 37 43 43
8 4 4 5 12 8 8 7 13 12 9 18 3 7 7 8 7 6 13 7 13 7 4 1 4 8 11 14 10 18 13 11 5 4 9 12 16 19 5 4 8 23 33 42 41
8 5 8 5 6 11 12 7 10 9 9 14 6 10 10 7 12 11 14 20 11 4 2 6 6 12 20 20 20 22 20 19 19 16 15 21 17 18 8 5 1 18 38 46 43
8 7 12 12 16 10 11 5 7 10 10 10 7 11 9 11 13 19 16 13 9 6 3 2 4 7 15 20 20 21 19 21 19 19 17 22 20 24 9 6 12 23 42 38 35
8 8 6 10 8 7 4 10 12 11 3 13 13 10 12 16 22 24 28 30 21 7 4 2 3 3 5 10 13 7 8 10 10 13 14 14 14 5 6 11 19 32 37 32 26
Wind_Direction
347 343 342 341 339 339 338 336 334 331 332 332 328 322 317 313 305 295 277 271 278 293 295 284 287 257 234 248 244 240 242 244 241 251 263 286 303 309 311 311 302 317 65 158 148
349 345 342 340 338 336 333 330 329 326 328 329 326 322 320 320 321 285 277 261 279 304 310 271 254 273 231 234 228 214 235 234 247 255 267 280 289 294 321 322 292 296 122 126 198
350 346 340 335 332 329 326 322 323 322 325 329 329 323 323 328 343 246 151 309 304 305 296 325 275 303 284 247 229 231 240 248 252 254 259 273 286 310 310 299 297 291 181 195 148
355 350 343 336 329 325 324 322 319 320 321 326 328 323 328 326 24 127 350 356 35 15 9 341 271 249 266 251 271 247 245 243 253 270 282 279 292 297 298 290 301 279 292 254 187
352 349 346 339 329 322 320 320 316 315 317 322 324 322 339 322 270 338 356 7 9 350 319 314 300 279 243 246 237 257 269 263 251 249 257 273 271 275 283 286 288 286 275 290 234
348 344 340 335 330 323 318 315 313 313 317 318 317 318 333 265 12 336 342 339 325 316 307 303 303 315 292 286 280 297 292 280 270 262 248 246 265 264 264 272 281 285 275 278 290
350 344 338 333 328 321 316 313 310 311 314 312 305 312 287 249 331 287 324 319 308 296 307 291 298 328 321 320 303 321 310 291 278 274 264 277 262 254 257 262 269 281 284 275 278
348 345 339 332 327 321 315 312 306 314 322 297 300 301 260 145 342 227 314 314 308 306 295 294 272 277 287 284 291 299 290 288 1 245 264 275 273 263 270 259 260 268 275 273 269
344 345 341 332 326 319 317 310 301 304 308 294 295 294 286 188 249 324 340 313 315 309 304 283 258 237 278 283 294 240 266 276 286 272 263 213 258 266 266 266 257 252 262 267 269
340 343 342 336 332 320 323 318 314 308 270 310 230 277 269 270 330 347 325 306 305 291 283 265 216 191 244 212 242 251 257 257 254 269 256 260 255 254 253 251 259 246 244 248 251
342 341 342 337 335 329 356 7 356 336 323 253 239 243 296 291 337 316 312 326 309 325 304 323 326 239 232 239 238 249 263 281 291 336 333 295 290 287 299 264 247 251 257 240 239
344 340 340 337 338 351 338 355 4 311 300 280 261 262 267 285 275 288 309 322 331 311 308 327 282 275 305 294 277 282 276 277 298 315 300 301 295 293 295 287 275 259 243 244 245
345 340 338 339 13 339 346 349 343 328 303 300 235 235 223 270 269 272 246 295 315 315 312 318 301 315 315 312 311 301 295 298 280 283 270 294 294 292 289 283 286 270 265 239 238
346 338 337 334 317 332 357 336 331 319 299 207 161 185 210 255 250 215 221 193 256 291 293 279 292 293 300 301 302 289 273 283 288 287 276 223 278 280 290 289 286 280 274 273 275
335 336 336 313 343 22 350 333 326 72 5 188 133 171 230 215 262 292 192 191 237 251 254 250 277 291 307 352 339 315 330 308 313 289 290 268 276 279 287 282 279 285 289 273 268
329 334 326 242 303 0 327 311 313 279 262 144 160 213 205 257 297 282 262 214 245 245 259 262 264 315 184 329 319 307 341 332 303 272 265 260 243 275 260 275 279 282 282 283 270
335 329 308 222 297 1 324 339 353 238 233 71 9 4 337 302 285 259 284 279 275 288 293 321 330 26 97 307 320 334 41 312 295 250 257 244 246 246 249 252 270 275 277 278 287
348 353 350 219 52 340 336 341 253 331 359 5 0 326 290 315 9 342 316 330 332 21 338 307 313 74 126 191 243 297 256 188 274 271 297 313 285 277 284 308 294 294 286 287 288
354 93 63 94 76 338 331 309 336 324 7 2 349 323 331 357 1 329 338 330 358 18 342 316 288 304 226 259 242 170 262 237 220 284 332 272 282 286 277 345 360 354 348 319 300
6 33 23 117 311 349 327 287 300 28 356 353 317 317 338 345 353 336 335 346 342 34 3 335 309 289 327 333 314 185 209 307 214 243 255 250 272 266 8 358 346 342 333 321 322
46 335 188 193 313 273 271 266 305 326 2 356 307 311 337 335 333 319 309 320 343 11 351 28 294 296 321 281 291 310 310 360 35 220 208 262 254 46 8 359 337 329 332 316 315
22 325 201 12 267 200 251 292 345 335 1 320 49 319 350 324 318 304 295 302 71 61 337 64 275 283 274 279 272 278 316 181 226 279 250 267 289 6 42 2 343 330 320 303 308
344 277 259 35 35 330 328 347 314 338 331 332 3 357 326 298 308 319 295 313 46 36 5 348 291 305 302 257 111 105 317 133 278 232 244 284 268 50 4 360 330 342 311 304 312
335 324 36 309 9 16 336 329 327 324 342 352 276 287 291 289 283 280 307 305 293 254 292 216 234 223 260 269 301 293 285 267 261 275 285 261 279 283 249 350 318 338 306 299 300
4 30 6 322 342 317 302 291 306 337 354 348 333 329 346 327 316 298 311 304 301 14 103 187 247 233 256 269 274 271 275 271 262 245 253 275 280 284 213 109 289 307 299 283 291
20 0 342 296 313 294 293 347 347 331 331 314 296 329 331 305 285 290 301 306 302 360 244 200 267 276 270 272 262 268 263 260 260 264 254 265 275 278 210 242 246 256 253 265 274
28 354 331 293 305 310 17 332 311 306 289 299 292 304 298 281 291 307 295 284 283 187 186 204 270 268 264 322 322 287 300 267 274 282 237 262 291 175 199 215 231 244 261 272 288